Zurück zum Katalog

COSMOS 1131

AktivMilitärLEO
NORAD 11539·PAYLOAD·🇷🇺 Russia

Gestartet Sep 25, 1979 von Plesetsk Cosmodrome

Loading…

Nächste Überflüge (nächste 24 Stunden)

TLE

AktuellSource: Space-Track

Epoche: Sep 14, 2026, 07:08 UTC

1 11539U 79084B   26257.29761251 -.00000021  00000-0 -31931-4 0  9998
2 11539  74.0277  20.4499 0045501  53.2469 330.7697 12.54395092150764

Verfolge COSMOS 1131 in Echtzeit mit AllMySat

Download on the App Store